Preview of NWS' New Version of Forecast
This preview is not operational and should not be used for support decisions.

Regional Weather Roundup (RWR)

Issued by National Weather Service (NWS)

                            
000
ASUS43 KMKX 190100
RWRWI 

WISCONSIN REGIONAL WEATHER ROUNDUP
NATIONAL WEATHER SERVICE MILWAUKEE/SULLIVAN WI
800 PM CDT WED SEP 18 2019

NOTE: "FAIR" INDICATES FEW OR NO CLOUDS BELOW 12,000 FEET WITH NO
SIGNIFICANT WEATHER AND/OR OBSTRUCTIONS TO VISIBILITY.

WIZ001-002-006>008-014>016-023>028-190200-
NORTHWEST WISCONSIN
  
CITY           SKY/WX    TMP DP  RH WIND       PRES   REMARKS
SUPERIOR ARPT  FAIR      73  68  84 CALM      29.82R                  
ASHLAND        FAIR      75  65  70 S9        29.86R                  
HAYWARD        FAIR      72  64  76 S9        29.91R                  
SIREN          FAIR      73  66  78 S5        29.90R                  
CUMBERLAND     FAIR      68  63  83 S5        29.93R                  
RICE LAKE      FAIR      72  60  65 S8        29.93R                  
CHETEK         CLOUDY    73  66  76 CALM      29.93R                  
LADYSMITH      CLOUDY    74  67  78 S9        29.97R                  
EAU CLAIRE     MOCLDY    74  66  76 S7        29.93R                  
MENOMONIE      CLOUDY    70  63  78 SE7       29.93R                  
NEW RICHMOND   FAIR      74  65  73 S7        29.91R                  
OSCEOLA        MOCLDY    74  69  85 S7        29.92R                  
$$
 
WIZ003>005-009-010-017-018-190200-
NORTH CENTRAL WISCONSIN
  
CITY           SKY/WX    TMP DP  RH WIND       PRES   REMARKS
MANITOWISH WTR CLOUDY    72  67  84 S9        29.95R                  
ARBOR VITAE    FAIR      72  67  86 S10       29.96R                  
WOODRUFF       FAIR      72  67  86 S10       29.96R                  
RHINELANDER    FAIR      72  66  81 S10       29.98R                  
EAGLE RIVER    FAIR      72  64  78 S7        29.96R                  
LAND O LAKES   MOCLDY    72  65  80 S7        29.98R                  
PHILLIPS       CLOUDY    73  67  82 S9        29.95R                  
TOMAHAWK       FAIR      70  66  88 S3        29.97S                  
MEDFORD        CLOUDY    71  67  89 S9        29.98R                  
MERRILL        MOCLDY    72  68  88 S6        29.99R                  
$$
 
WIZ029-030-035-036-043>047-190200-
CENTRAL WISCONSIN
  
CITY           SKY/WX    TMP DP  RH WIND       PRES   REMARKS
WAUSAU         FAIR      72  68  87 S9        29.97S                  
MOSINEE        PTCLDY    72  72 100 S8        30.00S                  
MARSHFIELD     FAIR      73  68  84 S9        29.98R                  
STEVENS POINT  FAIR      72  67  84 S7        30.01R                  
WAUPACA        FAIR      73  67  79 CALM      30.02R                  
WAUTOMA        NOT AVBL                                               
WISC RAPIDS    NOT AVBL                                               
CAMP DOUGLAS   NOT AVBL                                               
$$
 
WIZ011>013-019>022-031-037>040-048>050-190200-
NORTHEAST WISCONSIN
  
CITY           SKY/WX    TMP DP  RH WIND       PRES   REMARKS
ANTIGO         FAIR      69  67  93 S7        30.02S                  
SHAWANO        FAIR      73  67  82 S5        30.01R                  
OCONTO         FAIR      67  64  87 S6        30.01S                  
STURGEON BAY   FAIR      67  61  81 S12G20    30.05R                  
GREEN BAY      FAIR      70  63  78 S13       30.03R                  
MANITOWOC      FAIR      66  62  87 S12       30.06R                  
APPLETON       NOT AVBL                                               
CLINTONVILLE   NOT AVBL                                               
OSHKOSH        FAIR      71  65  81 SE9       30.02R                  
$$
 
WIZ032>034-041-042-053>061-190200-
SOUTHWEST WISCONSIN
  
CITY           SKY/WX    TMP DP  RH WIND       PRES   REMARKS
LA CROSSE      FAIR      78  70  76 S7        29.94R HX  80           
SPARTA         FAIR      74  68  82 S8        29.97S                  
VIROQUA        FAIR      73  73 100 S8        30.00R                  
BOSCOBEL       FAIR      77  69  76 CALM      29.98S                  
PRAIRIE DU CHI FAIR      76  66  69 SE3       29.97S                  
PLATTEVILLE    FAIR      73  72  98 SE5       30.02R                  
$$

WIZ056-057-062-063-064-067-068-190200-
SOUTH CENTRAL WISCONSIN
  
CITY           SKY/WX    TMP DP  RH WIND       PRES   REMARKS
REEDSBURG      FAIR      74  68  83 S3        30.01R                  
BARABOO/DELLS  FAIR      71  67  87 S6        30.02R                  
LONE ROCK      NOT AVBL                                               
MINERAL POINT  FAIR      73  72  94 SE6       30.03R                  
MADISON        MOCLDY    75  65  70 S10       30.02R                  
MIDDLETON      FAIR      76  65  67 S8        30.02S                  
WATERTOWN      FAIR      69  66  88 SE6       30.03S                  
MONROE         FAIR      72  66  83 S9        30.04R                  
JANESVILLE     PTCLDY    73  66  78 S6        30.03R                  
$$
 
WIZ051-052-058>065-066-070>072-190200-
SOUTHEAST WISCONSIN
  
CITY           SKY/WX    TMP DP  RH WIND       PRES   REMARKS
MILWAUKEE      MOCLDY    72  61  68 S10       30.05R                  
WAUKESHA       CLEAR     70  61  73 S7        30.06R                  
MILWAUKEE/TIMM CLEAR     72  57  60 S9        30.06R                  
RACINE         FAIR      72  61  68 S12       30.07S                  
KENOSHA        FAIR      72  63  73 SE9       30.06S                  
FOND DU LAC    FAIR      71  65  81 SE8       30.04R                  
SHEBOYGAN      FAIR      66  61  84 S6        30.07R                  
WEST BEND      FAIR      68  63  83 CALM      30.05R                  
JUNEAU         FAIR      71  64  78 SE5       30.05R                  
$$

LSZ147-162-190200-
LAKE SUPERIOR
  
STATION/POSITION TIME  TEMP    WIND        PRES    WAVE
                       AIR SEA DIR/SP/G            HT/PER
                 (UTC) (F)     (DEG/KT/KT) (MB)    (FT/S)
W MID LAKE BUOY  2350   63 54  190/ 12/ 12 1009.3S   1/ 4
DEVILS ISLAND    0000   67     210/  6/  6 1009.6R
SAXON HARBOR     0030   78     210/  6/ 13 1010.5R
$$
 
LMZ867-665-643>646-190200-
LAKE MICHIGAN
  
STATION/POSITION TIME  TEMP    WIND        PRES    WAVE
                       AIR SEA DIR/SP/G            HT/PER
                 (UTC) (F)     (DEG/KT/KT) (MB)    (FT/S)
CHAMBERS ISLAND  0040   68     120/  5/ 12   N/A
N MID LAKE BUOY  0040   65 62  200/ 10/ 12 1018.0R
NORTHPORT PIER   0040   67     130/  9/ 16 1016.6S
KEWAUNEE LAKESHO 0030   67     200/ 10/ 17 1016.9R
SHEBOYGAN LAKESH 0000   66     180/ 14/ 15 1017.3S
PORT WASHINGTON  0040   64     210/  5/  7 1018.6R
ATWATER BUOY     0030   63 58  170/ 12/ 14 1017.7R   2/ 4
MILWAUKEE LAKESH 0030   72     160/ 11/ 14   N/A
S MID LAKE BUOY  0040   71 68  130/ 12/ 14 1018.5R
KENOSHA   LAKESH 0000   69     180/ 11/ 13 1017.6
$$

TC  - TEMPERATURE IN CELSIUS
VSB - VISIBILITY IN STATUTE MILES
WCI - WIND CHILL INDEX
HX  - HEAT INDEX